Change the Weather History Date:

Wednesday, May 22, 2013

  Actual Average Record
Temperature  
Mean Temperature 58 °F -  
Max Temperature 68 °F 72 °F 94 °F (1992)
Min Temperature 50 °F 48 °F 36 °F (2002)
Degree Days  
Heating Degree Days 7    
Growing Degree Days 8 (Base 50)    
Moisture  
Dew Point 52 °F    
Average Humidity 90    
Maximum Humidity 96    
Minimum Humidity 75    
Precipitation  
Precipitation 0.33 in - - ()
Sea Level Pressure  
Sea Level Pressure 29.95 in    
Wind  
Wind Speed 6 mph (East)    
Max Wind Speed 15 mph    
Max Gust Speed 18 mph    
Visibility 8 miles    
Events Rain    
Averages and records for this station are not official NWS values.
T = Trace of Precipitation, MM = Missing Value Source: NWS Daily Summary

Daily Weather History Graph

Daily Weather History Graph

Search for Another Location

Airport or City:

Trip Planner

Search our weather history database for the weather conditions in past years. The results will help you decide how hot, cold, wet, or windy it might be!

Date:

Astronomy

May. 22, 2013 Rise Set
Actual Time 5:16 AM EDT 8:07 PM EDT
Civil Twilight 4:43 AM EDT 8:40 PM EDT
Nautical Twilight 4:02 AM EDT 9:22 PM EDT
Astronomical Twilight 3:13 AM EDT 10:11 PM EDT
Moon 5:23 PM EDT (5/22) 3:22 AM EDT (5/22)
Length of Visible Light 15h 56m
Length of Day
14h 50m
Waxing Gibbous, 91% of the Moon is Illuminated
May 22
Waxing Gibbous
May 25
Full
May 31
Last Quarter
Jun 8
New
Jun 16
First Quarter

Hourly Weather History & Observations

Time (EDT) Temp. Dew Point Humidity Pressure Visibility Wind Dir Wind Speed Gust Speed Precip Events Conditions
12:56 AM 50.0 °F 48.0 °F 93% 30.04 in 5.0 mi ENE 11.5 mph - 0.02 in Rain Light Rain
1:21 AM 50.0 °F 48.2 °F 94% 29.96 in 6.0 mi East 9.2 mph - 0.12 in Rain Light Rain
1:56 AM 50.0 °F 48.0 °F 93% 29.96 in 10.0 mi ESE 6.9 mph - 0.14 in Rain Light Rain
2:18 AM 50.0 °F 48.2 °F 94% 29.89 in 10.0 mi SE 15.0 mph 18.4 mph 0.00 in   Mostly Cloudy
2:33 AM 50.0 °F 48.2 °F 94% 29.91 in 10.0 mi SE 9.2 mph - 0.00 in   Mostly Cloudy
2:56 AM 50.0 °F 48.0 °F 93% 29.99 in 10.0 mi Calm Calm - 0.00 in   Overcast
3:24 AM 50.0 °F 48.2 °F 94% 29.94 in 10.0 mi Calm Calm - N/A   Overcast
3:56 AM 50.0 °F 48.9 °F 96% 30.04 in 10.0 mi West 6.9 mph - 0.00 in Rain Light Rain
4:11 AM 50.0 °F 48.2 °F 94% 29.95 in 2.5 mi South 5.8 mph - 0.11 in Rain Heavy Rain
4:18 AM 50.0 °F 48.2 °F 94% 29.94 in 5.0 mi South 4.6 mph - 0.14 in Rain Rain
4:40 AM 50.0 °F 48.2 °F 94% 29.92 in 10.0 mi East 3.5 mph - 0.15 in Rain Light Rain
4:47 AM 50.0 °F 48.2 °F 94% 29.93 in 10.0 mi Calm Calm - 0.16 in Rain Light Rain
4:56 AM 50.0 °F 48.9 °F 96% 29.97 in 10.0 mi Calm Calm - 0.16 in Rain Light Rain
5:56 AM 51.1 °F 48.9 °F 92% 29.94 in 10.0 mi South 8.1 mph - 0.01 in Rain Light Rain
6:56 AM 52.0 °F 50.0 °F 93% 29.96 in 10.0 mi NW 4.6 mph - 0.00 in   Overcast
7:56 AM 54.0 °F 51.1 °F 90% 29.95 in 5.0 mi Calm Calm - N/A   Overcast
8:03 AM 53.6 °F 51.8 °F 94% 29.91 in 10.0 mi NW 3.5 mph - N/A   Overcast
8:18 AM 53.6 °F 51.8 °F 94% 29.91 in 10.0 mi Calm Calm - N/A   Overcast
8:56 AM 55.0 °F 52.0 °F 89% 29.96 in 10.0 mi ENE 3.5 mph - N/A   Overcast
9:56 AM 57.0 °F 53.1 °F 87% 29.97 in 10.0 mi Calm Calm - N/A   Overcast
10:56 AM 57.9 °F 55.0 °F 90% 29.97 in 10.0 mi Calm Calm - N/A   Overcast
11:56 AM 60.1 °F 55.9 °F 86% 29.97 in 10.0 mi Calm Calm - N/A   Overcast
12:41 PM 62.6 °F 57.2 °F 82% 29.93 in 10.0 mi ESE 3.5 mph - N/A   Overcast
12:56 PM 64.0 °F 57.9 °F 80% 29.96 in 10.0 mi Calm Calm - N/A   Overcast
1:56 PM 64.9 °F 59.0 °F 81% 29.95 in 10.0 mi ENE 5.8 mph - N/A   Overcast
2:28 PM 66.2 °F 60.8 °F 83% 29.90 in 10.0 mi East 8.1 mph - N/A   Overcast
2:56 PM 66.9 °F 60.1 °F 79% 29.94 in 10.0 mi ESE 6.9 mph - N/A   Overcast
3:56 PM 64.0 °F 55.9 °F 75% 29.95 in 10.0 mi East 10.4 mph - N/A   Overcast
4:56 PM 60.1 °F 54.0 °F 80% 29.94 in 10.0 mi East 10.4 mph - N/A   Overcast
5:40 PM 57.2 °F 53.6 °F 88% 29.89 in 10.0 mi East 12.7 mph - N/A   Overcast
5:56 PM 57.0 °F 52.0 °F 83% 29.94 in 10.0 mi East 13.8 mph - N/A   Overcast
6:56 PM 55.9 °F 52.0 °F 87% 29.97 in 10.0 mi East 10.4 mph - N/A   Overcast
7:56 PM 55.9 °F 51.1 °F 84% 29.97 in 10.0 mi ENE 4.6 mph - N/A   Overcast
8:10 PM 55.4 °F 51.8 °F 88% 29.93 in 10.0 mi East 6.9 mph - N/A   Overcast
8:56 PM 54.0 °F 50.0 °F 86% 29.97 in 10.0 mi East 11.5 mph - N/A   Overcast
9:56 PM 53.1 °F 51.1 °F 93% 29.98 in 6.0 mi East 4.6 mph - N/A   Overcast
10:40 PM 53.6 °F 51.8 °F 94% 29.95 in 2.5 mi NNE 3.5 mph - N/A   Overcast
10:56 PM 53.1 °F 52.0 °F 96% 29.98 in 1.8 mi NNE 3.5 mph - N/A   Overcast
11:27 PM 53.6 °F 51.8 °F 94% 29.93 in 2.5 mi ENE 3.5 mph - N/A   Overcast
11:43 PM 53.6 °F 51.8 °F 94% 29.93 in 3.0 mi Calm Calm - N/A   Overcast
11:56 PM 53.1 °F 52.0 °F 96% 29.96 in 4.0 mi NE 3.5 mph - N/A   Overcast